AirNav   Everest Fuels
 
 474 users online  

33J Geneva Municipal Airport
Geneva, Alabama, USA

GOING TO GENEVA?


FAA INFORMATION EFFECTIVE 05 DECEMBER 2019

Location

FAA Identifier: 33J
Lat/Long: 31-03-09.4500N 085-52-08.2000W
31-03.157500N 085-52.136667W
31.0526250,-85.8689444
(estimated)
Elevation: 100.3 ft. / 31 m (estimated)
Variation: 04W (2015)
From city: 2 miles N of GENEVA, AL
Time zone: UTC -6 (UTC -5 during Daylight Saving Time)
Zip code: 36340

Airport Operations

Airport use: Open to the public
Activation date: 12/1957
Control tower: no
ARTCC: JACKSONVILLE CENTER
FSS: ANNISTON FLIGHT SERVICE STATION
NOTAMs facility: ANB (NOTAM-D service available)
Attendance: MON-SAT 0800-1700, ALL SUN 1200-1700
Wind indicator: lighted
Segmented circle: no
Lights: ACTVT PAPI RWY 11 & 29; MIRL RWY 11/29 - CTAF.
Beacon: white-green (lighted land airport)
Operates sunset to sunrise.

Airport Communications

CTAF/UNICOM: 122.8
CAIRNS APPROACH: 133.75
CAIRNS DEPARTURE: 133.75
WX AWOS-3PT at EDN (15 nm N): 118.9 (334-347-3524)
WX AWOS-3PT at 1J0 (19 nm SE): 119.825 (850-547-1431)
  • APCH/DEP SVC PRVDD BY JACKSONVILLE ARTCC ON FREQS 134.3/322.55 (DOTHAN RCAG) WHEN CAIRNS APCH/DEP CLSD.

Nearby radio navigation aids

VOR radial/distance  VOR name  Freq  Var
EDNr176/(14.7)ENTERPRISE VOR116.6003W
OZRr212/14.9CAIRNS VOR/DME111.2003W
HEYr213/(22.3)HANCHEY VOR110.6003W
RRSr236/26.4WIREGRASS VORTAC111.6002E

 
NDB name  Hdg/Dist  Freq  Var  ID
RUCKR198/10.721203WOZ --- --..
BOLL WEEVIL164/18.235203WBVG -... ...- --.
LOWE202/19.626903WLOR .-.. --- .-.
HANCHEY213/22.322103WHYE .... -.-- .
JUDD121/30.826402WJUY .--- ..- -.--
SOYYA290/34.932902WSMY ... -- -.--

Airport Services

Fuel available: 100LL
Parking: tiedowns
Airframe service: MAJOR
Powerplant service: MAJOR
Bottled oxygen: NONE
Bulk oxygen: NONE

Runway Information

Runway 11/29

Dimensions: 3998 x 100 ft. / 1219 x 30 m
Surface: asphalt, in good condition
Weight bearing capacity: 
Single wheel: 16.0
Runway edge lights: medium intensity
Operational restrictions: MARKINGS FADED.
RUNWAY 11  RUNWAY 29
Latitude: 31-03.255833N31-03.059167N
Longitude: 085-52.502167W085-51.771000W
Elevation: 94.4 ft.95.8 ft.
Traffic pattern: leftleft
Runway heading: 111 magnetic, 107 true291 magnetic, 287 true
Markings: nonprecision, in poor conditionnonprecision, in poor condition
Visual slope indicator: 4-light PAPI on left (3.50 degrees glide path)4-light PAPI on left (3.50 degrees glide path)
Touchdown point: yes, no lightsyes, no lights
Obstructions: none35 ft. pole, 1274 ft. from runway, 55 ft. right of centerline, 30:1 slope to clear

Airport Ownership and Management from official FAA records

Ownership: Publicly-owned
Owner: TOWN OF GENEVA
PO BOX 37
GENEVA, AL 36340
Phone 334-684-2485
Manager: TOWN OF GENEVA
304 EAST AIRPORT AVE
GENEVA, AL 36340
Phone 334-684-2485

Airport Operational Statistics

Aircraft based on the field: 26
Single engine airplanes: 26
    
Aircraft operations: avg 25/day *
90% transient general aviation
7% military
3% local general aviation
* for 12-month period ending 17 January 2020

Additional Remarks

FOR CD CTC CAIRNS APCH AT 334-255-8402, WHEN APCH CLSD CTC JACKSONVILLE ARTCC AT 904-845-1592.

Instrument Procedures

NOTE: All procedures below are presented as PDF files. If you need a reader for these files, you should download the free Adobe Reader.

NOT FOR NAVIGATION. Please procure official charts for flight.
FAA instrument procedures published for use from 05 December 2019 at 0900Z to 02 January 2020 at 0900Z.

 
IAPs - Instrument Approach Procedures
RNAV (GPS) RWY 11   download (173KB)
RNAV (GPS) RWY 29   download (173KB)
NOTE: Special Take-Off Minimums/Departure Procedures apply   download (394KB)

Other nearby airports with instrument procedures:

KEDN - Enterprise Municipal Airport (15 nm N)
KOZR - Cairns Army Airfield (Fort Rucker) (16 nm NE)
1J0 - Tri-County Airport (19 nm SE)
KLOR - Lowe Army Heliport (Fort Rucker) (19 nm N)
KHEY - Hanchey Army Heliport (Fort Rucker) (21 nm NE)
 
Loc | Ops | Rwys | IFR | FBO | Links
Com | Nav | Svcs | Stats | Notes
Area around 33J (Geneva Municipal Airport)
 
Road maps at: MapQuest Bing Google
 
Aerial photo
WARNING: Photo may not be current or correct
Aerial photo of 33J (Geneva Municipal Airport)
Do you have a better or more recent aerial photo of Geneva Municipal Airport that you would like to share? If so, please send us your photo.

 
Sectional chart

 
Airport distance calculator
Flying to Geneva Municipal Airport? Find the distance to fly.

From to 33J

Sunrise and sunset
Times for 10-Dec-2019
 Local
(UTC-6)
 Zulu
(UTC)
Morning civil twilight06:0512:05
Sunrise06:3212:32
Sunset16:4122:41
Evening civil twilight17:0723:07

Current date and time
Zulu (UTC)  10-Dec-2019 11:17:46
Local (UTC-6)  10-Dec-2019 05:17:46
 
METAR
KEDN 
15nm N 
101055Z AUTO 19005KT 3/4SM BR OVC002 19/19 A3002 RMK AO2 T01850185
KOZR 
16nm NE 
101056Z AUTO 19005KT 1 1/4SM BR OVC002 19/19 A3002 RMK AO2 SLP166 T01890189
K1J0 
19nm SE 
101058Z AUTO 19003KT 1/4SM FG VV002 19/18 A3003 RMK AO2 SLP126 T01890183
KLOR 
19nm N 
101058Z AUTO 18004KT 5/8SM BR VV002 18/18 A3002 RMK AO2 SLP148 T01760176 RVRNO
KSXS 
19nm N 
101058Z AUTO 19005KT 1 1/4SM BR OVC002 18/18 A3001 RMK AO2 SLP162
KHEY 
21nm NE 
101058Z AUTO 21003KT 1/2SM FG VV001 17/17 A3001 RMK AO2 SLP163 T01740170 RVRNO
K0J4 
23nm W 
101058Z AUTO 21008KT 3SM BR OVC002 20/19 A3003 RMK AO2 SLP165 T02000189 $
K54J 
24nm SW 
101055Z AUTO 19006KT 1/4SM FG OVC003 20/19 A3002 RMK AO2 T01960193
KDHN 
27nm NE 
101053Z AUTO 21006KT 1SM BR OVC002 19/18 A3006 RMK AO2 SLP174 T01890183
TAF
KOZR 
16nm NE 
100800Z 1008/1114 18006KT 9999 SCT015 QNH3001INS BECMG 1008/1009 18006KT 2400 BR OVC007 QNH2999INS BECMG 1013/1014 18010G15KT 9999 NSW OVC005 QNH3005INS BECMG 1014/1015 20015G20KT 9999 OVC007 QNH3002INS BECMG 1018/1019 20010G15KT 8000 -RA SCT007 OVC015 QNH3000INS BECMG 1023/1024 32006KT 8000 BR -RA OVC003 QNH3006INS BECMG 1105/1106 36010G15KT 8000 -RA OVC008 510203 QNH3016INS TX20/1020Z TN08/1108Z
NOTAMs
Click for the latest NOTAMs
NOTAMs are issued by the DoD/FAA and will open in a separate window not controlled by AirNav.

 

 
 

FBO, Fuel Providers, and Aircraft Ground Support

  
 Business Name 
 
 Contact 
 
 Services / Description 
 
Fuel Prices
 
Comments
  
Geneva Municipal Airport 334-684-3591
[web site]
Airport management, Aviation fuel

More info about Geneva Municipal Airport
Phillips 66
100LL
SS $4.25 
 Updated 11-Jul-2019
 
   write
SS=Self service
Update Fuel Prices
 

Would you like to see your business listed on this page?

 If your business provides an interesting product or service to pilots, flight crews, aircraft, or users of the Geneva Municipal Airport, you should consider listing it here.  To start the listing process, click on the button below
 
Add a business
 

Other Pages about Geneva Municipal Airport

Update a link
 
Copyright © AirNav, LLC. All rights reserved. Privacy Policy  Contact